Terug naar catalogus

STARLINK-2629

ActiefCommunicatieVLEO
NORAD 48686·PAYLOAD·🇺🇸 United States

Gelanceerd May 26, 2021 vanaf Cape Canaveral Space Force Station

Loading…

Volgende Passages (komende 24 uur)

TLE

VersSource: CelesTrak SupGP

Epoch: Sep 15, 2026, 01:57 UTC

1 48686C 21044BA  26258.08173611  .00010269  00000+0  33002-3 0  2589
2 48686  53.1568 273.9840 0001257  99.6557 307.7254 15.31718323    14

Volg STARLINK-2629 in realtime met AllMySat

Download on the App Store